Covington, KY

7:46 PM EDT on May 26, 2018 (GMT -0400)
Cincinnati-Northern KY International

Weather History for KCVG - September, 2011

Change the Weather History Date:

Friday, September 23, 2011

  Actual Average Record
Temperature  
Mean Temperature 58 °F 65 °F  
Max Temperature 66 °F 75 °F 95 °F (2010)
Min Temperature 49 °F 54 °F 34 °F (1983)
Degree Days  
Heating Degree Days 7 3  
Month to date heating degree days 42 28  
Since 1 July heating degree days 42 28  
Cooling Degree Days 0 3  
Month to date cooling degree days 103 122  
Year to date cooling degree days 1332 1090  
Growing Degree Days 8 (Base 50)    
Moisture  
Dew Point 53 °F    
Average Humidity 80    
Maximum Humidity 100    
Minimum Humidity 60    
Precipitation  
Precipitation 0.61 in 0.09 in 1.32 in (2000)
Month to date precipitation 3.27 1.99  
Year to date precipitation 50.17 31.78  
Snow  
Snow 0.00 in 0.00 in - ()
Month to date snowfall 0.0 0.0  
Since 1 July snowfall 0.0 0.0  
Since 1 September snowfall 0.0 0.0  
Snow Depth 0.00 in    
Sea Level Pressure  
Sea Level Pressure 30.04 in    
Wind  
Wind Speed 7 mph (NW)    
Max Wind Speed 17 mph    
Max Gust Speed 22 mph    
Visibility 7 miles    
Events Rain    
T = Trace of Precipitation, MM = Missing Value Source: NWS Daily Summary

Daily Weather History Graph

Daily Weather History Graph

Search for Another Location

Airport or City:

Astronomy

Sep. 23, 2011 Rise Set
Actual Time 7:26 AM EDT 7:34 PM EDT
Civil Twilight 7:00 AM EDT 8:01 PM EDT
Nautical Twilight 6:29 AM EDT 8:32 PM EDT
Astronomical Twilight 5:57 AM EDT 9:03 PM EDT
Moon 2:54 AM EDT (9/23) 5:03 PM EDT (9/23)
Length of Visible Light 13h 00m
Length of Day
12h 07m
Waning Crescent, 19% of the Moon is Illuminated
Sep 23
Waning Crescent
Sep 27
New
Oct 3
First Quarter
Oct 11
Full
Oct 19
Last Quarter

Hourly Weather History & Observations

Time (EDT) Temp. Dew Point Humidity Pressure Visibility Wind Dir Wind Speed Gust Speed Precip Events Conditions
12:52 AM 62.1 °F 52.0 °F 70% 30.04 in 10.0 mi NNW 10.4 mph - N/A   Overcast
1:52 AM 61.0 °F 51.1 °F 70% 30.05 in 10.0 mi NNW 10.4 mph - N/A   Overcast
2:52 AM 57.2 °F 50.0 °F 77% 30.07 in 10.0 mi NW 12.7 mph - N/A   Overcast
3:50 AM 55.4 °F 51.8 °F 88% 30.04 in 10.0 mi North 12.7 mph - N/A   Overcast
3:52 AM 55.9 °F 52.0 °F 87% 30.02 in 10.0 mi North 12.7 mph - N/A   Overcast
4:12 AM 55.4 °F 53.6 °F 94% 30.04 in 10.0 mi North 11.5 mph - 0.00 in Rain Light Rain
4:52 AM 55.0 °F 54.0 °F 96% 30.02 in 8.0 mi North 10.4 mph - 0.00 in Rain Light Rain
5:52 AM 54.0 °F 53.1 °F 97% 30.01 in 4.0 mi North 10.4 mph - 0.29 in Rain Light Rain
6:18 AM 53.6 °F 53.6 °F 100% 30.03 in 7.0 mi North 8.1 mph - 0.03 in Rain Light Rain
6:52 AM 54.0 °F 53.1 °F 97% 30.02 in 5.0 mi North 6.9 mph - 0.09 in Rain Light Rain
7:50 AM 53.6 °F 53.6 °F 100% 30.03 in 5.0 mi NNW 8.1 mph - 0.08 in Rain Light Rain
7:52 AM 54.0 °F 53.1 °F 97% 30.02 in 5.0 mi North 6.9 mph - 0.08 in Rain Light Rain
8:11 AM 53.6 °F 53.6 °F 100% 30.04 in 2.5 mi NW 6.9 mph - 0.02 in Rain Light Rain
8:52 AM 53.6 °F 53.6 °F 100% 30.05 in 2.5 mi NW 6.9 mph - N/A Rain Light Rain
9:52 AM 54.0 °F 53.1 °F 97% 30.05 in 6.0 mi NNW 11.5 mph - 0.06 in Rain Light Rain
10:52 AM 54.0 °F 53.1 °F 97% 30.06 in 8.0 mi NW 9.2 mph - 0.01 in Rain Light Rain
11:32 AM 55.4 °F 53.6 °F 94% 30.08 in 3.0 mi NW 6.9 mph - 0.00 in Rain Light Rain
11:41 AM 55.4 °F 53.6 °F 94% 30.08 in 2.0 mi NW 6.9 mph - 0.00 in Rain Light Rain
11:52 AM 55.0 °F 53.1 °F 93% 30.06 in 2.0 mi WNW 6.9 mph - 0.01 in Rain Light Rain
12:23 PM 55.4 °F 53.6 °F 94% 30.07 in 2.0 mi NW 9.2 mph - 0.00 in   Overcast
12:33 PM 55.4 °F 53.6 °F 94% 30.07 in 7.0 mi NNW 8.1 mph - 0.00 in   Overcast
12:52 PM 55.9 °F 53.1 °F 90% 30.06 in 8.0 mi NW 8.1 mph - 0.00 in   Overcast
1:52 PM 57.9 °F 53.1 °F 84% 30.05 in 10.0 mi NW 5.8 mph - N/A   Overcast
2:52 PM 62.1 °F 54.0 °F 75% 30.03 in 10.0 mi Calm Calm - N/A   Mostly Cloudy
3:08 PM 62.6 °F 53.6 °F 72% 30.04 in 10.0 mi Calm Calm - N/A   Mostly Cloudy
3:52 PM 63.0 °F 52.0 °F 67% 30.01 in 10.0 mi Calm Calm - N/A   Scattered Clouds
4:52 PM 64.0 °F 52.0 °F 65% 30.00 in 10.0 mi Variable 3.5 mph - N/A   Scattered Clouds
5:52 PM 64.0 °F 50.0 °F 60% 29.99 in 10.0 mi WSW 4.6 mph - N/A   Partly Cloudy
6:52 PM 62.1 °F 53.1 °F 72% 29.99 in 10.0 mi South 4.6 mph - N/A   Scattered Clouds
7:52 PM 57.0 °F 52.0 °F 83% 30.00 in 10.0 mi South 4.6 mph - N/A   Scattered Clouds
8:52 PM 57.0 °F 53.1 °F 87% 30.01 in 10.0 mi South 4.6 mph - N/A   Scattered Clouds
9:52 PM 55.0 °F 52.0 °F 89% 30.03 in 10.0 mi SSE 5.8 mph - N/A   Partly Cloudy
10:52 PM 53.6 °F 51.8 °F 94% 30.04 in 9.0 mi South 4.6 mph - N/A   Partly Cloudy
11:52 PM 52.0 °F 51.1 °F 97% 30.03 in 6.0 mi South 4.6 mph - N/A   Partly Cloudy